Miscellaneous Local Product
Issued by NWS North Platte, NE

Home | Current Version | Previous Version | Graphics & Text | Print | Product List | Glossary On
Versions: 1 2 3 4 5 6 7 8 9 10 11 12 13 14 15 16 17 18 19 20 21 22 23 24 25 26 27 28 29 30 31 32 33 34 35 36 37 38 39 40 41 42 43 44 45 46 47 48 49 50
000
AXUS43 KLBF 280710
MISLBF


WESTERN AND NORTH CENTRAL NEBRASKA HOURLY WEATHER ROUNDUP
NATIONAL WEATHER SERVICE NORTH PLATTE NE
100 AM CST SAT FEB 28 2015

***STATIONS NOT REPORTING VARIABLES SUCH AS SKY/WEATHER OR
PRESSURE ARE PROVIDED BY THE NEBRASKA DEPARTMENT OF
ROADS...RAWS...AND APRS NETWORKS...AND ARE NOT UNDER
NATIONAL WEATHER SERVICE QUALITY CONTROL***

...OBSERVATIONS IN AND NEAR THE EASTERN PANHANDLE OF NEBRASKA...

CITY           SKY/WX    TMP DP  RH WIND       PRES   REMARKS
PINE RIDGE     CLEAR     16   6  65 S12G23    30.04F WCI   3
CHADRON        CLEAR     16   7  67 S12       30.03F WCI   3
ALLIANCE       CLEAR     10   5  80 S14       30.02F WCI  -6
SIDNEY         CLOUDY     7   3  84 S13       30.01S FOG     WCI  -9
WHITECLAY        N/A     16   5  61 S16         N/A  WCI   1
CRESCENT LAKE    N/A      9   4  80 S10         N/A  WCI  -5
LISCO            N/A     14   6  73 E9          N/A  WCI   1
BIG SPRINGS      N/A      9   6  85 SE5         N/A  WCI   1
LEWELLEN         N/A      6   2  82 SE7         N/A  WCI  -5
$$

...OBSERVATIONS IN NORTH CENTRAL NEBRASKA...

CITY           SKY/WX    TMP DP  RH WIND       PRES   REMARKS
VALENTINE      CLOUDY    18   6  59 S14       30.17F WCI   4
THEDFORD       CLOUDY    18   8  63 S15       30.18F WCI   4
AINSWORTH      CLEAR     11   1  66 S10       30.20F WCI  -3
O`NEILL        CLEAR     11   1  64 S12       30.30F WCI  -3
ORD            CLEAR     10   0  63 S7        30.31F WCI  -1
BROKEN BOW     CLEAR      9   2  73 S13G23    30.25F WCI  -7
BROWNLEE         N/A     16   4  59 S22         N/A  WCI  -2
SPRINGVIEW       N/A     13   1  57 MISG        N/A
BREWSTER         N/A     30  23  74 S8          N/A  WCI  23
ROSE             N/A     17  10  75 E10         N/A  WCI   4
NEWPORT          N/A     19   8  62 S10         N/A  WCI   7
SARGENT          N/A      9   2  72 CALM        N/A
COMSTOCK         N/A     30  21  69 S10         N/A  WCI  21
CHAMBERS         N/A      8 -14  35 S7          N/A  WCI  -3
EWING            N/A      9   2  72 S5          N/A  WCI   1
$$

...OBSERVATIONS IN SOUTHWEST NEBRASKA AND FAR NORTHEAST COLORADO...

CITY           SKY/WX    TMP DP  RH WIND       PRES   REMARKS
WRAY           CLOUDY    14   9  79 S10G18    30.11F WCI   1
IMPERIAL         N/A     14   7  73 S15       30.15F WCI  -1
OGALLALA       MOCLDY    10   7  87 S8        30.14S WCI  -1
NORTH PLATTE   CLOUDY    15   5  64 S14       30.21S WCI   0
MCCOOK         CLOUDY    17   5  59 S12       30.25F WCI   4
LEXINGTON      CLOUDY    14   5  66 SE10      30.28S WCI   2
PAXTON           N/A      9   4  80 S6          N/A  WCI  -1
BRADY            N/A     14   4  64 CALM        N/A
GOTHENBURG       N/A     15   5  65 S9          N/A  WCI   3
CALLAWAY         N/A     14   8  76 S20         N/A  WCI  -3
$$

...NORTH PLATTE AREA...

CITY           SKY/WX    TMP DP  RH WIND       PRES   REMARKS
AIRPORT        CLOUDY    15   5  64 S14       30.21S WCI   0
$$

...SOME WEATHER OBSERVATIONS FROM AROUND THE REGION...

CITY           SKY/WX    TMP DP  RH WIND       PRES   REMARKS
DENVER         PTCLDY     2  -1  88 S10       29.89F WCI -14
LARAMIE        MOCLDY    -1  -5  82 SW7       29.76S WCI -14
CHEYENNE       MOCLDY     3  -1  83 SW7       29.82S WCI  -9
SCOTTSBLUFF    CLEAR     11   5  77 SE8       30.00F WCI  -1
RAPID CITY     PTCLDY    11   6  81 SE9       30.01S WCI  -2
PIERRE         CLEAR     13   0  56 SE12      30.19F WCI  -1
WINNER         FAIR      16  -1  47 S17G25    30.21F WCI   0
SIOUX FALLS    CLEAR      5  -2  72 S9        30.41S WCI  -9
OMAHA          CLEAR      9   1  70 SE6       30.52S WCI  -1
GRAND ISLAND   CLEAR     10   2  69 S10       30.38F WCI  -4
KANSAS CITY    MOCLDY    15   6  67 E9        30.53F WCI   3
WICHITA        CLOUDY    16  10  77 SE8       30.45F WCI   5
HAYS           CLOUDY    12   0  57 SE12      30.35F WCI  -2
LIBERAL        CLOUDY    12   7  79 E9        30.24F WCI   0
GOODLAND       LGT SNOW  11   8  88 S14       30.14F FOG     WCI  -5
$$



USA.gov is the U.S. government's official web portal to all federal, state and local government web resources and services.